Year,Month,Day,Hour,Minute,Value (Times are PST for windgust in km/hr)
2020,11,15,00,00,29.00
2020,11,15,00,01,19.30
2020,11,15,00,02,19.30
2020,11,15,00,03,14.50
2020,11,15,00,04,25.70
2020,11,15,00,05,30.60
2020,11,15,00,06,29.00
2020,11,15,00,07,27.40
2020,11,15,00,08,25.70
2020,11,15,00,09,16.10
2020,11,15,00,10,12.90
2020,11,15,00,11,17.70
2020,11,15,00,12,20.90
2020,11,15,00,13,20.90
2020,11,15,00,14,12.90
2020,11,15,00,15,16.10
2020,11,15,00,16,16.10
2020,11,15,00,17,20.90
2020,11,15,00,18,20.90
2020,11,15,00,19,24.20
2020,11,15,00,20,20.90
2020,11,15,00,21,24.20
2020,11,15,00,22,17.70
2020,11,15,00,23,16.10
2020,11,15,00,24,22.50
2020,11,15,00,25,22.50
2020,11,15,00,26,16.10
2020,11,15,00,27,22.50
2020,11,15,00,28,22.50
2020,11,15,00,29,17.70
2020,11,15,00,30,17.70
2020,11,15,00,31,17.70
2020,11,15,00,32,17.70
2020,11,15,00,33,19.30
2020,11,15,00,34,17.70
2020,11,15,00,35,16.10
2020,11,15,00,36,16.10
2020,11,15,00,37,8.10
2020,11,15,00,38,19.30
2020,11,15,00,39,14.50
2020,11,15,00,40,16.10
2020,11,15,00,41,20.90
2020,11,15,00,42,12.90
2020,11,15,00,43,17.70
2020,11,15,00,44,17.70
2020,11,15,00,45,20.90
2020,11,15,00,46,17.70
2020,11,15,00,47,19.30
2020,11,15,00,48,16.10
2020,11,15,00,49,16.10
2020,11,15,00,50,20.90
2020,11,15,00,51,19.30
2020,11,15,00,52,12.90
2020,11,15,00,53,17.70
2020,11,15,00,54,17.70
2020,11,15,00,55,19.30
2020,11,15,00,56,8.10
2020,11,15,00,57,14.50
2020,11,15,00,58,19.30
2020,11,15,00,59,12.90
2020,11,15,01,00,14.50
2020,11,15,01,01,19.30
2020,11,15,01,02,19.30
2020,11,15,01,03,17.70
2020,11,15,01,04,12.90
2020,11,15,01,05,11.30
2020,11,15,01,06,14.50
2020,11,15,01,07,11.30
2020,11,15,01,08,12.90
2020,11,15,01,09,8.10
2020,11,15,01,10,11.30
2020,11,15,01,11,14.50
2020,11,15,01,12,12.90
2020,11,15,01,13,17.70
2020,11,15,01,14,16.10
2020,11,15,01,15,16.10
2020,11,15,01,16,14.50
2020,11,15,01,17,16.10
2020,11,15,01,18,11.30
2020,11,15,01,19,14.50
2020,11,15,01,20,8.10
2020,11,15,01,21,14.50
2020,11,15,01,22,8.10
2020,11,15,01,23,8.10
2020,11,15,01,24,14.50
2020,11,15,01,25,16.10
2020,11,15,01,26,17.70
2020,11,15,01,27,14.50
2020,11,15,01,28,14.50
2020,11,15,01,29,14.50
2020,11,15,01,30,16.10
2020,11,15,01,31,12.90
2020,11,15,01,32,17.70
2020,11,15,01,33,17.70
2020,11,15,01,34,17.70
2020,11,15,01,35,16.10
2020,11,15,01,36,19.30
2020,11,15,01,37,14.50
2020,11,15,01,38,16.10
2020,11,15,01,39,14.50
2020,11,15,01,40,14.50
2020,11,15,01,41,11.30
2020,11,15,01,42,14.50
2020,11,15,01,43,8.10
2020,11,15,01,44,12.90
2020,11,15,01,45,16.10
2020,11,15,01,46,16.10
2020,11,15,01,47,17.70
2020,11,15,01,48,11.30
2020,11,15,01,49,8.10
2020,11,15,01,50,17.70
2020,11,15,01,51,16.10
2020,11,15,01,52,16.10
2020,11,15,01,53,19.30
2020,11,15,01,54,16.10
2020,11,15,01,55,14.50
2020,11,15,01,56,17.70
2020,11,15,01,57,16.10
2020,11,15,01,58,12.90
2020,11,15,01,59,6.40
2020,11,15,02,00,12.90
2020,11,15,02,01,11.30
2020,11,15,02,02,11.30
2020,11,15,02,03,11.30
2020,11,15,02,04,11.30
2020,11,15,02,05,12.90
2020,11,15,02,06,17.70
2020,11,15,02,07,17.70
2020,11,15,02,08,11.30
2020,11,15,02,09,17.70
2020,11,15,02,10,19.30
2020,11,15,02,11,25.70
2020,11,15,02,12,20.90
2020,11,15,02,13,17.70
2020,11,15,02,14,14.50
2020,11,15,02,15,8.10
2020,11,15,02,16,22.50
2020,11,15,02,17,25.70
2020,11,15,02,18,22.50
2020,11,15,02,19,24.20
2020,11,15,02,20,22.50
2020,11,15,02,21,19.30
2020,11,15,02,22,29.00
2020,11,15,02,23,22.50
2020,11,15,02,24,20.90
2020,11,15,02,25,25.70
2020,11,15,02,26,19.30
2020,11,15,02,27,20.90
2020,11,15,02,28,30.60
2020,11,15,02,29,16.10
2020,11,15,02,30,16.10
2020,11,15,03,01,1.60
2020,11,15,04,10,1.60
2020,11,15,04,39,1.60
2020,11,15,05,06,1.60
2020,11,15,06,19,1.60
2020,11,15,06,42,1.60
2020,11,15,06,45,1.60
2020,11,15,06,50,1.60
2020,11,15,07,05,1.60
2020,11,15,08,22,1.60
2020,11,15,11,45,1.60
2020,11,15,15,24,1.60
